Time,TemperatureF,DewpointF,PressureIn,WindDirection,WindDirectionDegrees,WindSpeedMPH,WindSpeedGustMPH,Humidity,HourlyPrecipIn,Conditions,Clouds,dailyrainin,SoftwareType,DateUTC
2013-07-20 00:01:00,71.5,60.8,0.00,SE,135,1.3,5.1,69,0.00,,,0.00,WUHU216HW,2013-07-20 07:01:00,
2013-07-20 00:06:00,71.3,60.6,0.00,NW,315,1.1,2.7,69,0.00,,,0.00,WUHU216HW,2013-07-20 07:06:00,
2013-07-20 00:11:00,70.9,60.7,0.00,North,0,0.4,4.5,70,0.00,,,0.00,WUHU216HW,2013-07-20 07:11:00,
2013-07-20 00:16:00,70.9,60.2,0.00,North,0,0.4,4.5,69,0.00,,,0.00,WUHU216HW,2013-07-20 07:16:00,
2013-07-20 00:21:00,70.6,60.3,0.00,North,0,3.4,4.3,70,0.00,,,0.00,WUHU216HW,2013-07-20 07:21:00,
2013-07-20 00:26:00,70.2,59.9,0.00,NNE,23,3.6,4.3,70,0.00,,,0.00,WUHU216HW,2013-07-20 07:26:00,
2013-07-20 00:31:00,70.0,59.8,0.00,NNW,338,1.8,3.6,70,0.00,,,0.00,WUHU216HW,2013-07-20 07:31:00,
2013-07-20 00:36:00,69.8,59.9,0.00,NNW,338,0.7,2.2,71,0.00,,,0.00,WUHU216HW,2013-07-20 07:36:00,
2013-07-20 00:41:00,69.5,59.7,0.00,North,0,1.3,2.2,71,0.00,,,0.00,WUHU216HW,2013-07-20 07:41:00,
2013-07-20 00:46:00,69.3,59.9,0.00,ESE,113,1.6,5.4,72,0.00,,,0.00,WUHU216HW,2013-07-20 07:46:00,
2013-07-20 00:51:00,69.1,60.0,0.00,NNW,338,4.7,5.4,73,0.00,,,0.00,WUHU216HW,2013-07-20 07:51:00,
2013-07-20 00:56:00,68.8,59.8,0.00,North,0,1.1,4.7,73,0.00,,,0.00,WUHU216HW,2013-07-20 07:56:00,
2013-07-20 01:01:00,68.4,59.8,0.00,North,0,2.9,4.7,74,0.00,,,0.00,WUHU216HW,2013-07-20 08:01:00,
2013-07-20 01:06:00,68.0,59.5,0.00,NNE,23,1.1,4.7,74,0.00,,,0.00,WUHU216HW,2013-07-20 08:06:00,
2013-07-20 01:11:00,67.9,59.3,0.00,East,90,1.3,5.4,74,0.00,,,0.00,WUHU216HW,2013-07-20 08:11:00,
2013-07-20 01:16:00,67.7,59.5,0.00,NNE,23,1.1,7.4,75,0.00,,,0.00,WUHU216HW,2013-07-20 08:16:00,
2013-07-20 01:21:00,67.5,59.3,0.00,NE,45,0.4,7.4,75,0.00,,,0.00,WUHU216HW,2013-07-20 08:21:00,
2013-07-20 01:26:00,67.3,59.1,0.00,North,0,1.1,2.7,75,0.00,,,0.00,WUHU216HW,2013-07-20 08:26:00,
2013-07-20 01:31:00,67.1,59.3,0.00,NNW,338,0.4,2.7,76,0.00,,,0.00,WUHU216HW,2013-07-20 08:31:00,
2013-07-20 01:36:00,67.0,59.5,0.00,NNW,338,2.2,6.0,77,0.00,,,0.00,WUHU216HW,2013-07-20 08:36:00,
2013-07-20 01:41:00,66.8,59.0,0.00,North,0,2.5,6.0,76,0.00,,,0.00,WUHU216HW,2013-07-20 08:41:00,
2013-07-20 01:46:00,66.6,59.1,0.00,North,0,2.5,5.4,77,0.00,,,0.00,WUHU216HW,2013-07-20 08:46:00,
2013-07-20 01:51:00,66.6,59.1,0.00,NW,315,2.5,4.0,77,0.00,,,0.00,WUHU216HW,2013-07-20 08:51:00,
2013-07-20 01:56:00,66.4,59.0,0.00,NNW,338,2.5,2.5,77,0.00,,,0.00,WUHU216HW,2013-07-20 08:56:00,
2013-07-20 02:01:00,66.2,58.8,0.00,West,270,5.4,6.5,77,0.00,,,0.00,WUHU216HW,2013-07-20 09:01:00,
2013-07-20 02:06:00,66.1,58.6,0.00,NNE,23,0.2,6.5,77,0.00,,,0.00,WUHU216HW,2013-07-20 09:06:00,
2013-07-20 02:11:00,65.9,58.9,0.00,North,0,1.8,4.5,78,0.00,,,0.00,WUHU216HW,2013-07-20 09:11:00,
2013-07-20 02:16:00,65.9,58.9,0.00,NNW,338,3.4,4.5,78,0.00,,,0.00,WUHU216HW,2013-07-20 09:16:00,
2013-07-20 02:21:00,65.7,58.7,0.00,NNW,338,0.4,3.4,78,0.00,,,0.00,WUHU216HW,2013-07-20 09:21:00,
2013-07-20 02:26:00,65.5,58.9,0.00,NNE,23,1.3,2.9,79,0.00,,,0.00,WUHU216HW,2013-07-20 09:26:00,
2013-07-20 02:31:00,65.3,58.7,0.00,NNE,23,3.4,4.0,79,0.00,,,0.00,WUHU216HW,2013-07-20 09:31:00,
2013-07-20 02:36:00,65.2,58.5,0.00,NNW,338,3.6,4.0,79,0.00,,,0.00,WUHU216HW,2013-07-20 09:36:00,
2013-07-20 02:41:00,65.2,58.9,0.00,NNW,338,1.8,4.0,80,0.00,,,0.00,WUHU216HW,2013-07-20 09:41:00,
2013-07-20 02:46:00,65.0,58.3,0.00,West,270,0.4,4.0,79,0.00,,,0.00,WUHU216HW,2013-07-20 09:46:00,
2013-07-20 02:51:00,64.8,58.5,0.00,NE,45,0.2,4.5,80,0.00,,,0.00,WUHU216HW,2013-07-20 09:51:00,
2013-07-20 02:56:00,64.6,58.3,0.00,NW,315,3.4,6.3,80,0.00,,,0.00,WUHU216HW,2013-07-20 09:56:00,
2013-07-20 03:02:00,64.4,58.1,0.00,North,0,1.1,8.5,80,0.00,,,0.00,WUHU216HW,2013-07-20 10:02:00,
2013-07-20 03:07:00,64.3,58.3,0.00,NNW,338,2.9,8.5,81,0.00,,,0.00,WUHU216HW,2013-07-20 10:07:00,
2013-07-20 03:12:00,64.1,58.2,0.00,NW,315,4.3,4.9,81,0.00,,,0.00,WUHU216HW,2013-07-20 10:12:00,
2013-07-20 03:17:00,64.1,57.4,0.00,NNW,338,2.2,6.5,79,0.00,,,0.00,WUHU216HW,2013-07-20 10:17:00,
2013-07-20 03:22:00,63.9,57.6,0.00,NW,315,7.8,7.8,80,0.00,,,0.00,WUHU216HW,2013-07-20 10:22:00,
2013-07-20 03:27:00,63.7,57.4,0.00,North,0,2.2,7.8,80,0.00,,,0.00,WUHU216HW,2013-07-20 10:27:00,
2013-07-20 03:32:00,63.5,57.2,0.00,SW,225,2.0,4.9,80,0.00,,,0.00,WUHU216HW,2013-07-20 10:32:00,
2013-07-20 03:37:00,63.5,57.6,0.00,NNW,338,2.2,4.9,81,0.00,,,0.00,WUHU216HW,2013-07-20 10:37:00,
2013-07-20 03:42:00,63.5,57.6,0.00,NNE,23,2.0,4.7,81,0.00,,,0.00,WUHU216HW,2013-07-20 10:42:00,
2013-07-20 03:47:00,63.4,57.4,0.00,North,0,2.5,4.0,81,0.00,,,0.00,WUHU216HW,2013-07-20 10:47:00,
2013-07-20 03:52:00,63.4,57.4,0.00,NNW,338,1.1,4.7,81,0.00,,,0.00,WUHU216HW,2013-07-20 10:52:00,
2013-07-20 03:57:00,63.4,57.4,0.00,WNW,293,2.0,4.7,81,0.00,,,0.00,WUHU216HW,2013-07-20 10:57:00,
2013-07-20 04:02:00,63.2,57.3,0.00,NW,315,5.4,5.4,81,0.00,,,0.00,WUHU216HW,2013-07-20 11:02:00,
2013-07-20 04:07:00,63.0,57.4,0.00,NNW,338,3.6,6.9,82,0.00,,,0.00,WUHU216HW,2013-07-20 11:07:00,
2013-07-20 04:12:00,63.0,57.4,0.00,NW,315,1.6,6.9,82,0.00,,,0.00,WUHU216HW,2013-07-20 11:12:00,
2013-07-20 04:17:00,63.0,57.1,0.00,NW,315,2.2,4.0,81,0.00,,,0.00,WUHU216HW,2013-07-20 11:17:00,
2013-07-20 04:22:00,62.8,56.9,0.00,WNW,293,2.2,4.0,81,0.00,,,0.00,WUHU216HW,2013-07-20 11:22:00,
2013-07-20 04:27:00,62.8,57.3,0.00,NW,315,2.9,3.1,82,0.00,,,0.00,WUHU216HW,2013-07-20 11:27:00,
2013-07-20 04:32:00,62.8,57.3,0.00,WNW,293,1.8,3.1,82,0.00,,,0.00,WUHU216HW,2013-07-20 11:32:00,
2013-07-20 04:37:00,62.6,57.1,0.00,ENE,68,2.0,4.0,82,0.00,,,0.00,WUHU216HW,2013-07-20 11:37:00,
2013-07-20 04:42:00,62.5,57.3,0.00,WNW,293,1.8,6.3,83,0.00,,,0.00,WUHU216HW,2013-07-20 11:42:00,
2013-07-20 04:47:00,62.5,57.3,0.00,NW,315,4.5,6.3,83,0.00,,,0.00,WUHU216HW,2013-07-20 11:47:00,
2013-07-20 04:52:00,62.3,57.1,0.00,NW,315,1.6,4.5,83,0.00,,,0.00,WUHU216HW,2013-07-20 11:52:00,
2013-07-20 04:57:00,62.1,56.9,0.00,NW,315,2.5,5.4,83,0.00,,,0.00,WUHU216HW,2013-07-20 11:57:00,
2013-07-20 05:02:00,62.1,56.9,0.00,NE,45,3.1,5.4,83,0.00,,,0.00,WUHU216HW,2013-07-20 12:02:00,
2013-07-20 05:07:00,61.9,57.1,0.00,NNW,338,5.1,5.1,84,0.00,,,0.00,WUHU216HW,2013-07-20 12:07:00,
2013-07-20 05:12:00,61.9,57.1,0.00,North,0,1.1,5.1,84,0.00,,,0.00,WUHU216HW,2013-07-20 12:12:00,
2013-07-20 05:17:00,61.7,56.9,0.00,NNW,338,0.9,8.3,84,0.00,,,0.00,WUHU216HW,2013-07-20 12:17:00,
2013-07-20 05:22:00,61.6,56.7,0.00,North,0,4.7,8.3,84,0.00,,,0.00,WUHU216HW,2013-07-20 12:22:00,
2013-07-20 05:27:00,61.6,57.1,0.00,West,270,5.8,5.8,85,0.00,,,0.00,WUHU216HW,2013-07-20 12:27:00,
2013-07-20 05:32:00,61.6,57.1,0.00,NW,315,1.3,5.8,85,0.00,,,0.00,WUHU216HW,2013-07-20 12:32:00,
2013-07-20 05:37:00,61.6,56.7,0.00,WNW,293,4.7,5.1,84,0.00,,,0.00,WUHU216HW,2013-07-20 12:37:00,
2013-07-20 05:42:00,61.6,57.1,0.00,NNW,338,3.4,7.6,85,0.00,,,0.00,WUHU216HW,2013-07-20 12:42:00,
2013-07-20 05:47:00,61.2,56.7,0.00,ESE,113,1.3,7.6,85,0.00,,,0.00,WUHU216HW,2013-07-20 12:47:00,
2013-07-20 05:52:00,61.2,56.7,0.00,NNW,338,2.2,5.8,85,0.00,,,0.00,WUHU216HW,2013-07-20 12:52:00,
2013-07-20 05:57:00,61.0,56.5,0.00,ENE,68,1.8,7.4,85,0.00,,,0.00,WUHU216HW,2013-07-20 12:57:00,
2013-07-20 06:02:00,61.0,56.5,0.00,WSW,248,3.4,9.2,85,0.00,,,0.00,WUHU216HW,2013-07-20 13:02:00,
2013-07-20 06:07:00,60.8,56.3,0.00,NE,45,2.2,9.2,85,0.00,,,0.00,WUHU216HW,2013-07-20 13:07:00,
2013-07-20 06:12:00,60.8,56.3,0.00,North,0,1.8,5.6,85,0.00,,,0.00,WUHU216HW,2013-07-20 13:12:00,
2013-07-20 06:17:00,60.8,56.3,0.00,NW,315,0.9,6.0,85,0.00,,,0.00,WUHU216HW,2013-07-20 13:17:00,
2013-07-20 06:22:00,60.8,56.3,0.00,North,0,0.9,6.0,85,0.00,,,0.00,WUHU216HW,2013-07-20 13:22:00,
2013-07-20 06:27:00,60.8,56.3,0.00,North,0,2.2,5.4,85,0.00,,,0.00,WUHU216HW,2013-07-20 13:27:00,
2013-07-20 06:32:00,60.8,56.7,0.00,NW,315,6.5,6.5,86,0.00,,,0.00,WUHU216HW,2013-07-20 13:32:00,
2013-07-20 06:37:00,60.8,56.7,0.00,NNW,338,3.4,6.5,86,0.00,,,0.00,WUHU216HW,2013-07-20 13:37:00,
2013-07-20 06:42:00,60.8,56.7,0.00,NNW,338,3.6,6.3,86,0.00,,,0.00,WUHU216HW,2013-07-20 13:42:00,
2013-07-20 06:47:00,60.8,56.7,0.00,WNW,293,3.6,6.0,86,0.00,,,0.00,WUHU216HW,2013-07-20 13:47:00,
2013-07-20 06:52:00,60.8,56.7,0.00,NE,45,3.4,6.0,86,0.00,,,0.00,WUHU216HW,2013-07-20 13:52:00,
2013-07-20 06:57:00,60.8,56.7,0.00,North,0,4.3,5.8,86,0.00,,,0.00,WUHU216HW,2013-07-20 13:57:00,
2013-07-20 07:02:00,60.8,56.7,0.00,NW,315,3.6,5.8,86,0.00,,,0.00,WUHU216HW,2013-07-20 14:02:00,
2013-07-20 07:07:00,60.8,56.7,0.00,NW,315,2.5,6.5,86,0.00,,,0.00,WUHU216HW,2013-07-20 14:07:00,
2013-07-20 07:12:00,60.8,56.7,0.00,NW,315,2.0,7.4,86,0.00,,,0.00,WUHU216HW,2013-07-20 14:12:00,
2013-07-20 07:17:00,61.0,56.5,0.00,North,0,1.1,7.4,85,0.00,,,0.00,WUHU216HW,2013-07-20 14:17:00,
2013-07-20 07:22:00,61.0,56.5,0.00,NNW,338,6.3,6.3,85,0.00,,,0.00,WUHU216HW,2013-07-20 14:22:00,
2013-07-20 07:27:00,61.0,56.5,0.00,NNW,338,1.3,6.3,85,0.00,,,0.00,WUHU216HW,2013-07-20 14:27:00,
2013-07-20 07:32:00,61.0,56.5,0.00,NNW,338,12.8,12.8,85,0.00,,,0.00,WUHU216HW,2013-07-20 14:32:00,
2013-07-20 07:37:00,61.0,56.5,0.00,NW,315,3.1,12.8,85,0.00,,,0.00,WUHU216HW,2013-07-20 14:37:00,
2013-07-20 07:42:00,61.0,56.5,0.00,NNW,338,1.1,8.7,85,0.00,,,0.00,WUHU216HW,2013-07-20 14:42:00,
2013-07-20 07:47:00,61.2,56.7,0.00,WNW,293,4.0,8.7,85,0.00,,,0.00,WUHU216HW,2013-07-20 14:47:00,
2013-07-20 07:52:00,61.2,56.3,0.00,North,0,1.8,5.8,84,0.00,,,0.00,WUHU216HW,2013-07-20 14:52:00,
2013-07-20 07:57:00,61.4,56.5,0.00,NW,315,1.6,4.7,84,0.00,,,0.00,WUHU216HW,2013-07-20 14:57:00,
2013-07-20 08:02:00,61.6,56.3,0.00,North,0,1.6,3.4,83,0.00,,,0.00,WUHU216HW,2013-07-20 15:02:00,
2013-07-20 08:07:00,61.6,56.3,0.00,NNE,23,0.4,5.8,83,0.00,,,0.00,WUHU216HW,2013-07-20 15:07:00,
2013-07-20 08:12:00,61.9,56.7,0.00,NNW,338,3.4,5.8,83,0.00,,,0.00,WUHU216HW,2013-07-20 15:12:00,
2013-07-20 08:17:00,62.1,56.9,0.00,North,0,6.3,6.3,83,0.00,,,0.00,WUHU216HW,2013-07-20 15:17:00,
2013-07-20 08:22:00,62.5,57.3,0.00,North,0,4.0,7.2,83,0.00,,,0.00,WUHU216HW,2013-07-20 15:22:00,
2013-07-20 08:27:00,62.6,57.1,0.00,WSW,248,5.4,7.2,82,0.00,,,0.00,WUHU216HW,2013-07-20 15:27:00,
2013-07-20 08:32:00,62.8,56.9,0.00,North,0,3.4,5.4,81,0.00,,,0.00,WUHU216HW,2013-07-20 15:32:00,
2013-07-20 08:37:00,63.2,56.9,0.00,NNW,338,5.4,5.4,80,0.00,,,0.00,WUHU216HW,2013-07-20 15:37:00,
2013-07-20 08:42:00,63.2,56.9,0.00,ESE,113,1.3,5.4,80,0.00,,,0.00,WUHU216HW,2013-07-20 15:42:00,
2013-07-20 08:47:00,63.4,57.1,0.00,NNW,338,2.7,6.0,80,0.00,,,0.00,WUHU216HW,2013-07-20 15:47:00,
2013-07-20 08:52:00,63.7,57.4,0.00,NW,315,7.6,7.6,80,0.00,,,0.00,WUHU216HW,2013-07-20 15:52:00,
2013-07-20 08:57:00,63.9,57.2,0.00,NNW,338,1.6,7.6,79,0.00,,,0.00,WUHU216HW,2013-07-20 15:57:00,
2013-07-20 09:02:00,64.1,57.8,0.00,North,0,2.0,5.6,80,0.00,,,0.00,WUHU216HW,2013-07-20 16:02:00,
2013-07-20 09:07:00,64.1,57.8,0.00,NNW,338,4.7,5.6,80,0.00,,,0.00,WUHU216HW,2013-07-20 16:07:00,
2013-07-20 09:12:00,64.3,57.6,0.00,NW,315,12.1,12.1,79,0.00,,,0.00,WUHU216HW,2013-07-20 16:12:00,
2013-07-20 09:17:00,64.4,57.4,0.00,West,270,6.7,12.1,78,0.00,,,0.00,WUHU216HW,2013-07-20 16:17:00,
2013-07-20 09:22:00,64.6,57.6,0.00,NW,315,4.5,6.7,78,0.00,,,0.00,WUHU216HW,2013-07-20 16:22:00,
2013-07-20 09:27:00,64.8,57.8,0.00,NNE,23,3.1,6.5,78,0.00,,,0.00,WUHU216HW,2013-07-20 16:27:00,
2013-07-20 09:32:00,65.2,57.8,0.00,NNW,338,3.4,6.5,77,0.00,,,0.00,WUHU216HW,2013-07-20 16:32:00,
2013-07-20 09:37:00,65.3,57.6,0.00,West,270,7.4,7.4,76,0.00,,,0.00,WUHU216HW,2013-07-20 16:37:00,
2013-07-20 09:42:00,65.3,57.6,0.00,NW,315,2.5,7.4,76,0.00,,,0.00,WUHU216HW,2013-07-20 16:42:00,
2013-07-20 09:47:00,65.5,57.8,0.00,NW,315,1.1,7.2,76,0.00,,,0.00,WUHU216HW,2013-07-20 16:47:00,
2013-07-20 09:52:00,66.1,57.5,0.00,NNW,338,6.7,6.7,74,0.00,,,0.00,WUHU216HW,2013-07-20 16:52:00,
2013-07-20 09:57:00,65.9,57.7,0.00,ENE,68,7.6,7.6,75,0.00,,,0.00,WUHU216HW,2013-07-20 16:57:00,
2013-07-20 10:02:00,66.1,57.9,0.00,NW,315,1.8,7.6,75,0.00,,,0.00,WUHU216HW,2013-07-20 17:02:00,
2013-07-20 10:07:00,66.2,57.7,0.00,ENE,68,4.9,14.3,74,0.00,,,0.00,WUHU216HW,2013-07-20 17:07:00,
2013-07-20 10:12:00,66.2,57.7,0.00,WNW,293,6.3,14.3,74,0.00,,,0.00,WUHU216HW,2013-07-20 17:12:00,
2013-07-20 10:17:00,66.6,57.7,0.00,NNW,338,4.0,6.3,73,0.00,,,0.00,WUHU216HW,2013-07-20 17:17:00,
2013-07-20 10:22:00,67.0,58.4,0.00,NNW,338,5.4,6.3,74,0.00,,,0.00,WUHU216HW,2013-07-20 17:22:00,
2013-07-20 10:27:00,67.1,57.8,0.00,NNW,338,2.7,6.3,72,0.00,,,0.00,WUHU216HW,2013-07-20 17:27:00,
2013-07-20 10:32:00,67.0,57.6,0.00,ESE,113,1.1,11.0,72,0.00,,,0.00,WUHU216HW,2013-07-20 17:32:00,
2013-07-20 10:37:00,67.3,58.0,0.00,SW,225,6.7,11.0,72,0.00,,,0.00,WUHU216HW,2013-07-20 17:37:00,
2013-07-20 10:42:00,67.7,58.0,0.00,NW,315,6.5,9.2,71,0.00,,,0.00,WUHU216HW,2013-07-20 17:42:00,
2013-07-20 10:47:00,68.0,58.3,0.00,WSW,248,4.3,9.2,71,0.00,,,0.00,WUHU216HW,2013-07-20 17:47:00,
2013-07-20 10:52:00,68.2,58.2,0.00,West,270,4.5,8.5,70,0.00,,,0.00,WUHU216HW,2013-07-20 17:52:00,
2013-07-20 10:57:00,68.6,58.4,0.00,North,0,1.3,9.4,70,0.00,,,0.00,WUHU216HW,2013-07-20 17:57:00,
2013-07-20 11:02:00,68.8,58.6,0.00,NW,315,9.8,9.8,70,0.00,,,0.00,WUHU216HW,2013-07-20 18:02:00,
2013-07-20 11:07:00,68.9,58.8,0.00,South,180,3.4,9.8,70,0.00,,,0.00,WUHU216HW,2013-07-20 18:07:00,
2013-07-20 11:12:00,68.8,58.6,0.00,West,270,7.2,13.4,70,0.00,,,0.00,WUHU216HW,2013-07-20 18:12:00,
2013-07-20 11:17:00,69.1,58.5,0.00,SSE,158,2.5,13.4,69,0.00,,,0.00,WUHU216HW,2013-07-20 18:17:00,
2013-07-20 11:22:00,69.5,58.4,0.00,NW,315,7.6,9.4,68,0.00,,,0.00,WUHU216HW,2013-07-20 18:22:00,
2013-07-20 11:27:00,69.5,58.4,0.00,WNW,293,4.0,9.4,68,0.00,,,0.00,WUHU216HW,2013-07-20 18:27:00,
2013-07-20 11:32:00,70.0,58.5,0.00,WNW,293,12.8,12.8,67,0.00,,,0.00,WUHU216HW,2013-07-20 18:32:00,
2013-07-20 11:37:00,70.2,58.7,0.00,North,0,2.0,12.8,67,0.00,,,0.00,WUHU216HW,2013-07-20 18:37:00,
2013-07-20 11:42:00,70.0,58.5,0.00,NNW,338,3.8,8.7,67,0.00,,,0.00,WUHU216HW,2013-07-20 18:42:00,
2013-07-20 11:47:00,70.2,58.7,0.00,NNW,338,6.9,8.7,67,0.00,,,0.00,WUHU216HW,2013-07-20 18:47:00,
2013-07-20 11:52:00,70.9,59.0,0.00,North,0,2.5,6.9,66,0.00,,,0.00,WUHU216HW,2013-07-20 18:52:00,
2013-07-20 11:57:00,71.6,59.2,0.00,SSE,158,2.0,8.5,65,0.00,,,0.00,WUHU216HW,2013-07-20 18:57:00,
2013-07-20 12:02:00,71.6,59.7,0.00,NNW,338,6.3,8.5,66,0.00,,,0.00,WUHU216HW,2013-07-20 19:02:00,
2013-07-20 12:08:00,71.5,59.5,0.00,SE,135,0.9,6.3,66,0.00,,,0.00,WUHU216HW,2013-07-20 19:08:00,
2013-07-20 12:13:00,71.6,59.2,0.00,NW,315,12.8,12.8,65,0.00,,,0.00,WUHU216HW,2013-07-20 19:13:00,
2013-07-20 12:18:00,71.8,59.4,0.00,NNW,338,4.3,12.8,65,0.00,,,0.00,WUHU216HW,2013-07-20 19:18:00,
2013-07-20 12:23:00,71.8,59.4,0.00,NNW,338,5.8,12.8,65,0.00,,,0.00,WUHU216HW,2013-07-20 19:23:00,
2013-07-20 12:28:00,72.4,59.5,0.00,NNE,23,3.8,12.8,64,0.00,,,0.00,WUHU216HW,2013-07-20 19:28:00,
2013-07-20 12:33:00,72.7,59.8,0.00,North,0,2.2,11.0,64,0.00,,,0.00,WUHU216HW,2013-07-20 19:33:00,
2013-07-20 12:38:00,72.7,59.4,0.00,WNW,293,3.4,7.8,63,0.00,,,0.00,WUHU216HW,2013-07-20 19:38:00,
2013-07-20 12:44:00,73.1,59.7,0.00,NNW,338,6.9,7.6,63,0.00,,,0.00,WUHU216HW,2013-07-20 19:44:00,
2013-07-20 12:49:00,72.9,59.0,0.00,NNW,338,6.0,8.9,62,0.00,,,0.00,WUHU216HW,2013-07-20 19:49:00,
2013-07-20 12:54:00,72.9,59.0,0.00,West,270,8.1,8.9,62,0.00,,,0.00,WUHU216HW,2013-07-20 19:54:00,
2013-07-20 12:59:00,73.3,59.4,0.00,WNW,293,8.7,8.7,62,0.00,,,0.00,WUHU216HW,2013-07-20 19:59:00,
2013-07-20 13:04:00,73.8,59.5,0.00,NNE,23,3.8,8.7,61,0.00,,,0.00,WUHU216HW,2013-07-20 20:04:00,
2013-07-20 13:09:00,73.8,59.5,0.00,NNE,23,4.5,10.1,61,0.00,,,0.00,WUHU216HW,2013-07-20 20:09:00,
2013-07-20 13:14:00,74.3,59.6,0.00,North,0,5.8,10.1,60,0.00,,,0.00,WUHU216HW,2013-07-20 20:14:00,
2013-07-20 13:19:00,74.5,59.2,0.00,WNW,293,5.4,8.5,59,0.00,,,0.00,WUHU216HW,2013-07-20 20:19:00,
2013-07-20 13:24:00,74.9,60.1,0.00,WNW,293,3.6,8.5,60,0.00,,,0.00,WUHU216HW,2013-07-20 20:24:00,
2013-07-20 13:29:00,75.2,59.5,0.00,WNW,293,6.3,6.3,58,0.00,,,0.00,WUHU216HW,2013-07-20 20:29:00,
2013-07-20 13:34:00,75.2,59.5,0.00,NNW,338,4.0,8.5,58,0.00,,,0.00,WUHU216HW,2013-07-20 20:34:00,
2013-07-20 13:40:00,74.9,59.1,0.00,NNW,338,3.6,8.5,58,0.00,,,0.00,WUHU216HW,2013-07-20 20:40:00,
2013-07-20 13:45:00,74.5,59.2,0.00,North,0,1.8,9.2,59,0.00,,,0.00,WUHU216HW,2013-07-20 20:45:00,
2013-07-20 13:50:00,74.9,59.6,0.00,South,180,4.3,9.2,59,0.00,,,0.00,WUHU216HW,2013-07-20 20:50:00,
2013-07-20 13:55:00,75.1,59.3,0.00,West,270,4.7,7.6,58,0.00,,,0.00,WUHU216HW,2013-07-20 20:55:00,
2013-07-20 14:00:00,74.9,59.6,0.00,SE,135,1.1,8.3,59,0.00,,,0.00,WUHU216HW,2013-07-20 21:00:00,
2013-07-20 14:05:00,75.2,59.9,0.00,NE,45,3.4,8.3,59,0.00,,,0.00,WUHU216HW,2013-07-20 21:05:00,
2013-07-20 14:10:00,75.6,59.8,0.00,North,0,2.7,11.0,58,0.00,,,0.00,WUHU216HW,2013-07-20 21:10:00,
2013-07-20 14:15:00,75.4,59.7,0.00,NNW,338,5.6,11.0,58,0.00,,,0.00,WUHU216HW,2013-07-20 21:15:00,
2013-07-20 14:20:00,75.8,59.5,0.00,West,270,6.9,8.5,57,0.00,,,0.00,WUHU216HW,2013-07-20 21:20:00,
2013-07-20 14:25:00,76.5,59.6,0.00,SSW,203,1.8,8.5,56,0.00,,,0.00,WUHU216HW,2013-07-20 21:25:00,
2013-07-20 14:30:00,76.5,59.6,0.00,NNW,338,6.5,7.2,56,0.00,,,0.00,WUHU216HW,2013-07-20 21:30:00,
2013-07-20 14:35:00,76.7,59.8,0.00,NNW,338,3.8,6.5,56,0.00,,,0.00,WUHU216HW,2013-07-20 21:35:00,
2013-07-20 14:40:00,76.5,59.6,0.00,NW,315,7.6,7.6,56,0.00,,,0.00,WUHU216HW,2013-07-20 21:40:00,
2013-07-20 14:45:00,76.5,59.6,0.00,NNW,338,1.8,7.6,56,0.00,,,0.00,WUHU216HW,2013-07-20 21:45:00,
2013-07-20 14:50:00,76.5,59.6,0.00,West,270,5.4,9.2,56,0.00,,,0.00,WUHU216HW,2013-07-20 21:50:00,
2013-07-20 14:56:00,76.1,59.8,0.00,NNW,338,1.6,9.6,57,0.00,,,0.00,WUHU216HW,2013-07-20 21:56:00,
2013-07-20 15:02:00,76.7,59.8,0.00,West,270,4.3,9.6,56,0.00,,,0.00,WUHU216HW,2013-07-20 22:02:00,
2013-07-20 15:07:00,77.6,60.1,0.00,NNW,338,2.5,4.3,55,0.00,,,0.00,WUHU216HW,2013-07-20 22:07:00,
2013-07-20 15:13:00,77.6,60.1,0.00,North,0,0.9,4.3,55,0.00,,,0.00,WUHU216HW,2013-07-20 22:13:00,
2013-07-20 15:18:00,77.8,59.8,0.00,ESE,113,2.5,8.7,54,0.00,,,0.00,WUHU216HW,2013-07-20 22:18:00,
2013-07-20 15:23:00,77.4,60.0,0.00,SSW,203,1.8,8.7,55,0.00,,,0.00,WUHU216HW,2013-07-20 22:23:00,
2013-07-20 15:28:00,77.8,59.8,0.00,SSW,203,0.7,6.3,54,0.00,,,0.00,WUHU216HW,2013-07-20 22:28:00,
2013-07-20 15:33:00,78.1,60.1,0.00,NE,45,3.1,7.6,54,0.00,,,0.00,WUHU216HW,2013-07-20 22:33:00,
2013-07-20 15:38:00,77.9,59.4,0.00,NNW,338,4.0,7.6,53,0.00,,,0.00,WUHU216HW,2013-07-20 22:38:00,
2013-07-20 15:43:00,77.8,59.8,0.00,ENE,68,1.1,5.6,54,0.00,,,0.00,WUHU216HW,2013-07-20 22:43:00,
2013-07-20 15:48:00,78.7,59.6,0.00,SSE,158,2.7,4.0,52,0.00,,,0.00,WUHU216HW,2013-07-20 22:48:00,
2013-07-20 15:53:00,78.5,60.0,0.00,WNW,293,2.5,6.9,53,0.00,,,0.00,WUHU216HW,2013-07-20 22:53:00,
2013-07-20 15:59:00,78.8,60.2,0.00,SSE,158,2.5,6.9,53,0.00,,,0.00,WUHU216HW,2013-07-20 22:59:00,
2013-07-20 16:04:00,79.2,59.5,0.00,NE,45,2.5,3.6,51,0.00,,,0.00,WUHU216HW,2013-07-20 23:04:00,
2013-07-20 16:09:00,79.0,59.4,0.00,NW,315,2.5,4.5,51,0.00,,,0.00,WUHU216HW,2013-07-20 23:09:00,
2013-07-20 16:14:00,78.7,59.1,0.00,NW,315,2.0,5.4,51,0.00,,,0.00,WUHU216HW,2013-07-20 23:14:00,
2013-07-20 16:19:00,78.7,60.1,0.00,SSE,158,1.3,5.4,53,0.00,,,0.00,WUHU216HW,2013-07-20 23:19:00,
2013-07-20 16:24:00,79.2,60.0,0.00,ENE,68,2.7,4.7,52,0.00,,,0.00,WUHU216HW,2013-07-20 23:24:00,
2013-07-20 16:29:00,78.8,59.8,0.00,South,180,0.7,6.3,52,0.00,,,0.00,WUHU216HW,2013-07-20 23:29:00,
2013-07-20 16:34:00,79.0,59.9,0.00,North,0,3.1,6.3,52,0.00,,,0.00,WUHU216HW,2013-07-20 23:34:00,
2013-07-20 16:40:00,78.8,59.8,0.00,NNW,338,2.2,6.5,52,0.00,,,0.00,WUHU216HW,2013-07-20 23:40:00,
2013-07-20 16:45:00,78.3,59.8,0.00,WSW,248,4.0,6.9,53,0.00,,,0.00,WUHU216HW,2013-07-20 23:45:00,
2013-07-20 16:50:00,78.7,60.1,0.00,North,0,3.1,6.9,53,0.00,,,0.00,WUHU216HW,2013-07-20 23:50:00,
2013-07-20 16:55:00,79.2,60.0,0.00,NW,315,4.0,5.8,52,0.00,,,0.00,WUHU216HW,2013-07-20 23:55:00,
2013-07-20 17:01:00,79.2,60.0,0.00,NNW,338,2.5,5.4,52,0.00,,,0.00,WUHU216HW,2013-07-21 00:01:00,
2013-07-20 17:06:00,79.6,60.4,0.00,SE,135,4.7,6.5,52,0.00,,,0.00,WUHU216HW,2013-07-21 00:06:00,
2013-07-20 17:11:00,79.2,60.0,0.00,North,0,2.0,6.5,52,0.00,,,0.00,WUHU216HW,2013-07-21 00:11:00,
2013-07-20 17:16:00,79.2,60.6,0.00,SE,135,2.7,4.7,53,0.00,,,0.00,WUHU216HW,2013-07-21 00:16:00,
2013-07-20 17:21:00,79.6,60.4,0.00,North,0,1.1,7.4,52,0.00,,,0.00,WUHU216HW,2013-07-21 00:21:00,
2013-07-20 17:26:00,79.4,60.2,0.00,NW,315,3.6,7.4,52,0.00,,,0.00,WUHU216HW,2013-07-21 00:26:00,
2013-07-20 17:31:00,79.7,60.6,0.00,NW,315,2.7,3.6,52,0.00,,,0.00,WUHU216HW,2013-07-21 00:31:00,
2013-07-20 17:36:00,79.7,60.6,0.00,NNE,23,2.2,3.8,52,0.00,,,0.00,WUHU216HW,2013-07-21 00:36:00,
2013-07-20 17:41:00,79.9,60.7,0.00,North,0,6.9,6.9,52,0.00,,,0.00,WUHU216HW,2013-07-21 00:41:00,
2013-07-20 17:46:00,79.6,60.4,0.00,ENE,68,2.2,6.9,52,0.00,,,0.00,WUHU216HW,2013-07-21 00:46:00,
2013-07-20 17:51:00,79.9,61.2,0.00,NW,315,3.6,5.8,53,0.00,,,0.00,WUHU216HW,2013-07-21 00:51:00,
2013-07-20 17:57:00,79.9,60.7,0.00,NNE,23,1.8,6.9,52,0.00,,,0.00,WUHU216HW,2013-07-21 00:57:00,
2013-07-20 18:02:00,79.4,60.2,0.00,WSW,248,6.9,7.2,52,0.00,,,0.00,WUHU216HW,2013-07-21 01:02:00,
2013-07-20 18:07:00,79.2,60.6,0.00,NW,315,7.2,7.2,53,0.00,,,0.00,WUHU216HW,2013-07-21 01:07:00,
2013-07-20 18:12:00,79.4,60.8,0.00,North,0,5.4,7.2,53,0.00,,,0.00,WUHU216HW,2013-07-21 01:12:00,
2013-07-20 18:17:00,79.2,61.1,0.00,South,180,3.4,6.3,54,0.00,,,0.00,WUHU216HW,2013-07-21 01:17:00,
2013-07-20 18:22:00,79.4,60.8,0.00,NW,315,2.9,6.0,53,0.00,,,0.00,WUHU216HW,2013-07-21 01:22:00,
2013-07-20 18:27:00,79.6,61.4,0.00,NNE,23,0.9,5.4,54,0.00,,,0.00,WUHU216HW,2013-07-21 01:27:00,
2013-07-20 18:32:00,79.6,60.9,0.00,NW,315,7.6,7.6,53,0.00,,,0.00,WUHU216HW,2013-07-21 01:32:00,
2013-07-20 18:38:00,79.4,61.3,0.00,North,0,6.3,7.6,54,0.00,,,0.00,WUHU216HW,2013-07-21 01:38:00,
2013-07-20 18:43:00,79.2,61.1,0.00,NW,315,1.3,6.3,54,0.00,,,0.00,WUHU216HW,2013-07-21 01:43:00,
2013-07-20 18:49:00,79.4,61.3,0.00,SE,135,4.0,4.3,54,0.00,,,0.00,WUHU216HW,2013-07-21 01:49:00,
2013-07-20 18:54:00,79.4,61.3,0.00,WNW,293,2.7,5.8,54,0.00,,,0.00,WUHU216HW,2013-07-21 01:54:00,
2013-07-20 18:59:00,79.6,61.4,0.00,NNW,338,2.5,5.8,54,0.00,,,0.00,WUHU216HW,2013-07-21 01:59:00,
2013-07-20 19:04:00,79.6,61.4,0.00,NNW,338,0.4,3.6,54,0.00,,,0.00,WUHU216HW,2013-07-21 02:04:00,
2013-07-20 19:09:00,79.0,60.9,0.00,NW,315,2.7,9.2,54,0.00,,,0.00,WUHU216HW,2013-07-21 02:09:00,
2013-07-20 19:14:00,78.8,60.8,0.00,North,0,1.8,9.2,54,0.00,,,0.00,WUHU216HW,2013-07-21 02:14:00,
2013-07-20 19:19:00,78.7,61.1,0.00,NNW,338,2.0,6.3,55,0.00,,,0.00,WUHU216HW,2013-07-21 02:19:00,
2013-07-20 19:25:00,78.1,60.6,0.00,SE,135,1.8,4.7,55,0.00,,,0.00,WUHU216HW,2013-07-21 02:25:00,
2013-07-20 19:30:00,78.1,60.6,0.00,NNW,338,8.1,8.1,55,0.00,,,0.00,WUHU216HW,2013-07-21 02:30:00,
2013-07-20 19:35:00,77.8,60.8,0.00,NNW,338,4.0,8.1,56,0.00,,,0.00,WUHU216HW,2013-07-21 02:35:00,
2013-07-20 19:40:00,77.8,61.3,0.00,North,0,0.4,4.0,57,0.00,,,0.00,WUHU216HW,2013-07-21 02:40:00,
2013-07-20 19:45:00,77.6,60.6,0.00,North,0,3.8,4.0,56,0.00,,,0.00,WUHU216HW,2013-07-21 02:45:00,
2013-07-20 19:50:00,77.4,60.9,0.00,North,0,0.9,6.0,57,0.00,,,0.00,WUHU216HW,2013-07-21 02:50:00,
2013-07-20 19:56:00,77.0,60.6,0.00,NNE,23,0.4,6.0,57,0.00,,,0.00,WUHU216HW,2013-07-21 02:56:00,
2013-07-20 20:01:00,76.9,60.9,0.00,West,270,2.7,5.6,58,0.00,,,0.00,WUHU216HW,2013-07-21 03:01:00,
2013-07-20 20:06:00,76.5,60.6,0.00,NNE,23,2.2,5.6,58,0.00,,,0.00,WUHU216HW,2013-07-21 03:06:00,
2013-07-20 20:11:00,76.3,60.9,0.00,SE,135,1.1,7.4,59,0.00,,,0.00,WUHU216HW,2013-07-21 03:11:00,
2013-07-20 20:16:00,76.0,60.7,0.00,NW,315,4.7,4.7,59,0.00,,,0.00,WUHU216HW,2013-07-21 03:16:00,
2013-07-20 20:21:00,76.0,60.7,0.00,NNE,23,0.9,4.7,59,0.00,,,0.00,WUHU216HW,2013-07-21 03:21:00,
2013-07-20 20:26:00,75.6,60.9,0.00,North,0,4.0,4.0,60,0.00,,,0.00,WUHU216HW,2013-07-21 03:26:00,
2013-07-20 20:31:00,75.4,60.7,0.00,East,90,0.2,4.0,60,0.00,,,0.00,WUHU216HW,2013-07-21 03:31:00,
2013-07-20 20:36:00,75.1,60.8,0.00,SE,135,1.1,4.0,61,0.00,,,0.00,WUHU216HW,2013-07-21 03:36:00,
2013-07-20 20:41:00,74.9,60.6,0.00,NNW,338,0.2,3.6,61,0.00,,,0.00,WUHU216HW,2013-07-21 03:41:00,
2013-07-20 20:46:00,74.7,60.9,0.00,West,270,1.1,3.6,62,0.00,,,0.00,WUHU216HW,2013-07-21 03:46:00,
2013-07-20 20:51:00,74.7,60.9,0.00,WSW,248,1.6,3.1,62,0.00,,,0.00,WUHU216HW,2013-07-21 03:51:00,
2013-07-20 20:57:00,74.7,60.9,0.00,North,0,0.2,3.1,62,0.00,,,0.00,WUHU216HW,2013-07-21 03:57:00,
2013-07-20 21:01:00,74.7,60.9,0.00,NE,45,2.2,2.9,62,0.00,,,0.00,WUHU216HW,2013-07-21 04:01:00,
2013-07-20 21:06:00,74.5,60.7,0.00,WNW,293,1.3,2.9,62,0.00,,,0.00,WUHU216HW,2013-07-21 04:06:00,
2013-07-20 21:11:00,74.3,60.9,0.00,ENE,68,3.4,3.4,63,0.00,,,0.00,WUHU216HW,2013-07-21 04:11:00,
2013-07-20 21:16:00,74.3,60.9,0.00,NNW,338,0.4,3.4,63,0.00,,,0.00,WUHU216HW,2013-07-21 04:16:00,
2013-07-20 21:21:00,74.3,60.9,0.00,WNW,293,0.0,4.0,63,0.00,,,0.00,WUHU216HW,2013-07-21 04:21:00,
2013-07-20 21:26:00,74.2,60.8,0.00,ESE,113,0.4,4.0,63,0.00,,,0.00,WUHU216HW,2013-07-21 04:26:00,
2013-07-20 21:31:00,73.8,60.4,0.00,ESE,113,0.4,1.8,63,0.00,,,0.00,WUHU216HW,2013-07-21 04:31:00,
2013-07-20 21:36:00,73.8,60.4,0.00,NE,45,0.0,3.1,63,0.00,,,0.00,WUHU216HW,2013-07-21 04:36:00,
2013-07-20 21:41:00,73.6,60.7,0.00,NW,315,4.0,4.0,64,0.00,,,0.00,WUHU216HW,2013-07-21 04:41:00,
2013-07-20 21:46:00,73.4,60.5,0.00,ENE,68,0.4,4.0,64,0.00,,,0.00,WUHU216HW,2013-07-21 04:46:00,
2013-07-20 21:51:00,73.1,60.1,0.00,NE,45,2.5,2.5,64,0.00,,,0.00,WUHU216HW,2013-07-21 04:51:00,
2013-07-20 21:56:00,72.9,60.4,0.00,NNW,338,4.3,4.3,65,0.00,,,0.00,WUHU216HW,2013-07-21 04:56:00,
2013-07-20 22:01:00,72.9,60.4,0.00,NW,315,1.3,4.3,65,0.00,,,0.00,WUHU216HW,2013-07-21 05:01:00,
2013-07-20 22:06:00,73.1,60.6,0.00,ESE,113,1.1,3.4,65,0.00,,,0.00,WUHU216HW,2013-07-21 05:06:00,
2013-07-20 22:11:00,73.1,60.6,0.00,NNW,338,1.8,3.4,65,0.00,,,0.00,WUHU216HW,2013-07-21 05:11:00,
2013-07-20 22:16:00,73.1,60.6,0.00,ENE,68,0.7,1.8,65,0.00,,,0.00,WUHU216HW,2013-07-21 05:16:00,
2013-07-20 22:21:00,73.1,60.1,0.00,NNE,23,0.4,3.4,64,0.00,,,0.00,WUHU216HW,2013-07-21 05:21:00,
2013-07-20 22:26:00,73.1,60.6,0.00,North,0,1.1,4.3,65,0.00,,,0.00,WUHU216HW,2013-07-21 05:26:00,
2013-07-20 22:31:00,72.9,60.4,0.00,NNW,338,1.3,4.3,65,0.00,,,0.00,WUHU216HW,2013-07-21 05:31:00,
2013-07-20 22:36:00,72.9,60.4,0.00,WSW,248,0.7,3.6,65,0.00,,,0.00,WUHU216HW,2013-07-21 05:36:00,
2013-07-20 22:41:00,72.7,60.2,0.00,South,180,0.9,3.6,65,0.00,,,0.00,WUHU216HW,2013-07-21 05:41:00,
2013-07-20 22:46:00,72.9,60.4,0.00,NE,45,4.9,4.9,65,0.00,,,0.00,WUHU216HW,2013-07-21 05:46:00,
2013-07-20 22:51:00,72.7,59.8,0.00,NE,45,0.7,4.9,64,0.00,,,0.00,WUHU216HW,2013-07-21 05:51:00,
2013-07-20 22:56:00,72.4,60.0,0.00,SE,135,1.8,3.4,65,0.00,,,0.00,WUHU216HW,2013-07-21 05:56:00,
2013-07-20 23:01:00,72.4,60.0,0.00,ENE,68,0.4,4.3,65,0.00,,,0.00,WUHU216HW,2013-07-21 06:01:00,
2013-07-20 23:06:00,72.4,60.0,0.00,North,0,1.1,4.3,65,0.00,,,0.00,WUHU216HW,2013-07-21 06:06:00,
2013-07-20 23:11:00,72.4,60.0,0.00,NNW,338,1.6,2.7,65,0.00,,,0.00,WUHU216HW,2013-07-21 06:11:00,
2013-07-20 23:16:00,72.4,60.0,0.00,North,0,1.6,2.5,65,0.00,,,0.00,WUHU216HW,2013-07-21 06:16:00,
2013-07-20 23:21:00,72.2,59.8,0.00,North,0,1.8,3.8,65,0.00,,,0.00,WUHU216HW,2013-07-21 06:21:00,
2013-07-20 23:26:00,72.2,59.8,0.00,NW,315,0.4,3.8,65,0.00,,,0.00,WUHU216HW,2013-07-21 06:26:00,
2013-07-20 23:31:00,72.0,59.6,0.00,ESE,113,0.7,1.8,65,0.00,,,0.00,WUHU216HW,2013-07-21 06:31:00,
2013-07-20 23:36:00,71.6,59.7,0.00,NNW,338,0.0,1.6,66,0.00,,,0.00,WUHU216HW,2013-07-21 06:36:00,
2013-07-20 23:41:00,71.5,59.5,0.00,SSE,158,0.9,1.3,66,0.00,,,0.00,WUHU216HW,2013-07-21 06:41:00,
2013-07-20 23:46:00,71.3,58.9,0.00,North,0,0.7,1.3,65,0.00,,,0.00,WUHU216HW,2013-07-21 06:46:00,
2013-07-20 23:51:00,71.3,58.9,0.00,SE,135,0.7,4.0,65,0.00,,,0.00,WUHU216HW,2013-07-21 06:51:00,
2013-07-20 23:56:00,70.9,58.5,0.00,ENE,68,0.0,4.0,65,0.00,,,0.00,WUHU216HW,2013-07-21 06:56:00,